BEL2YK LEMG-EBBR

Flight info

Callsign BEL2YK
Flight time N/A
Altitude 34000
Route BLN N865 SIE DCT XERMA N865 DELOG DCT DIDIG DCT USODA DCT ERCUT DCT DITAL UN873 BAZOS DCT BELDI DCT VEKIN Z173 ARVOL
Aircraft A320/M-SDE3FGHIRWY/LB1

Departure

Time 2026-05-07 13:11
Airport Málaga-Costa del Sol Airport (LEMG)

Arrival

Time N/A
Airport Brussels Airport (EBBR)
Time Latitude Longitude Altitude Speed Heading
2026-05-07 12:50 36.67685 -4.49507 60 ft 0 kts 41°
2026-05-07 13:04 36.67683 -4.49509 60 ft 2 kts 41°
2026-05-07 13:04 36.67672 -4.49521 60 ft 2 kts 41°
2026-05-07 13:04 36.67661 -4.49533 60 ft 2 kts 41°
2026-05-07 13:04 36.67652 -4.49542 60 ft 0 kts 41°
2026-05-07 13:05 36.67641 -4.49551 60 ft 2 kts 12°
2026-05-07 13:05 36.67626 -4.49552 60 ft 2 kts 343°
2026-05-07 13:05 36.67614 -4.49544 60 ft 0 kts 316°
2026-05-07 13:05 36.67610 -4.49538 60 ft 1 kts 310°
2026-05-07 13:06 36.67609 -4.49536 60 ft 0 kts 311°
2026-05-07 13:07 36.67611 -4.49540 60 ft 2 kts 311°
2026-05-07 13:07 36.67625 -4.49559 60 ft 3 kts 311°
2026-05-07 13:07 36.67650 -4.49594 60 ft 10 kts 312°
2026-05-07 13:07 36.67719 -4.49691 60 ft 15 kts 311°
2026-05-07 13:08 36.67792 -4.49793 60 ft 15 kts 309°
2026-05-07 13:08 36.67798 -4.49913 60 ft 13 kts 297°
2026-05-07 13:08 36.67861 -4.50006 60 ft 14 kts 312°
2026-05-07 13:08 36.67937 -4.50112 60 ft 18 kts 311°
2026-05-07 13:09 36.68030 -4.50242 60 ft 22 kts 312°
2026-05-07 13:09 36.68108 -4.50390 60 ft 16 kts 251°
2026-05-07 13:09 36.68124 -4.50508 60 ft 17 kts 310°
2026-05-07 13:09 36.68223 -4.50651 60 ft 22 kts 312°
2026-05-07 13:10 36.68324 -4.50794 60 ft 22 kts 313°
2026-05-07 13:10 36.68427 -4.50934 60 ft 21 kts 311°
2026-05-07 13:10 36.68500 -4.51084 61 ft 20 kts 258°
2026-05-07 13:10 36.68390 -4.51143 60 ft 18 kts 168°
2026-05-07 13:11 36.68258 -4.50985 61 ft 52 kts 132°
2026-05-07 13:11 36.67865 -4.50435 61 ft 115 kts 131°
2026-05-07 13:11 36.67205 -4.49510 110 ft 161 kts 133°
2026-05-07 13:11 36.66468 -4.48492 672 ft 161 kts 133°
2026-05-07 13:12 36.65700 -4.47462 1275 ft 163 kts 134°
2026-05-07 13:12 36.64945 -4.46395 1862 ft 167 kts 133°
2026-05-07 13:12 36.64156 -4.45268 2231 ft 180 kts 133°
2026-05-07 13:12 36.63299 -4.44058 2525 ft 195 kts 133°
2026-05-07 13:13 36.62363 -4.42740 2778 ft 214 kts 133°
2026-05-07 13:13 36.61335 -4.41298 3124 ft 231 kts 133°
2026-05-07 13:13 36.60309 -4.39733 3708 ft 237 kts 122°
2026-05-07 13:13 36.59677 -4.37839 4398 ft 240 kts 105°
2026-05-07 13:14 36.59324 -4.35837 5086 ft 242 kts 103°
2026-05-07 13:14 36.59002 -4.33776 5768 ft 245 kts 103°
2026-05-07 13:14 36.58672 -4.31701 6468 ft 246 kts 103°
2026-05-07 13:14 36.58371 -4.29604 7159 ft 249 kts 94°
2026-05-07 13:15 36.58725 -4.27507 7759 ft 256 kts 61°
2026-05-07 13:15 36.59807 -4.25708 8290 ft 266 kts 51°
2026-05-07 13:15 36.61010 -4.23915 8937 ft 272 kts 51°
2026-05-07 13:15 36.62218 -4.22104 9603 ft 275 kts 47°
2026-05-07 13:16 36.63700 -4.20636 10248 ft 278 kts 27°
2026-05-07 13:16 36.65521 -4.19707 10659 ft 291 kts 17°
2026-05-07 13:16 36.67499 -4.18936 10969 ft 308 kts 16°
2026-05-07 13:16 36.69611 -4.18129 11271 ft 324 kts 16°
2026-05-07 13:17 36.71825 -4.17260 11679 ft 336 kts 16°
2026-05-07 13:17 36.74062 -4.16399 12280 ft 340 kts 16°
2026-05-07 13:17 36.76355 -4.15513 12939 ft 343 kts 16°
2026-05-07 13:17 36.78616 -4.14637 13547 ft 345 kts 16°
2026-05-07 13:18 36.80925 -4.13736 14145 ft 348 kts 15°
2026-05-07 13:18 36.83249 -4.12826 14750 ft 351 kts 15°
2026-05-07 13:18 36.85574 -4.11919 15349 ft 352 kts 14°
2026-05-07 13:18 36.87926 -4.11001 15931 ft 354 kts 14°
2026-05-07 13:19 36.90262 -4.10089 16493 ft 356 kts 14°
2026-05-07 13:19 36.92629 -4.09164 17038 ft 358 kts 13°
2026-05-07 13:19 36.95009 -4.08232 17569 ft 361 kts 13°
2026-05-07 13:19 36.97413 -4.07291 18064 ft 363 kts 12°
2026-05-07 13:20 36.99859 -4.06334 18532 ft 366 kts 12°
2026-05-07 13:20 37.02274 -4.05389 19009 ft 369 kts 12°
2026-05-07 13:20 37.04724 -4.04429 19495 ft 371 kts 12°
2026-05-07 13:20 37.07209 -4.03457 19958 ft 373 kts 12°
2026-05-07 13:21 37.09670 -4.02490 20389 ft 375 kts 12°
2026-05-07 13:21 37.12183 -4.01498 20832 ft 377 kts 12°
2026-05-07 13:21 37.14719 -4.00501 21280 ft 380 kts 12°
2026-05-07 13:21 37.17232 -3.99515 21666 ft 383 kts 12°
2026-05-07 13:22 37.19796 -3.98519 22075 ft 385 kts 11°
2026-05-07 13:22 37.22373 -3.97555 22512 ft 387 kts 10°
2026-05-07 13:22 37.24965 -3.96596 22911 ft 389 kts 10°
2026-05-07 13:22 37.27575 -3.95626 23326 ft 391 kts 10°
2026-05-07 13:23 37.30166 -3.94660 23741 ft 393 kts 10°
2026-05-07 13:23 37.32808 -3.93676 24147 ft 395 kts 10°
2026-05-07 13:23 37.35419 -3.92700 24562 ft 396 kts 10°
2026-05-07 13:23 37.38077 -3.91703 24985 ft 397 kts
2026-05-07 13:24 37.40741 -3.90707 25371 ft 398 kts
2026-05-07 13:24 37.43389 -3.89716 25687 ft 401 kts
2026-05-07 13:24 37.46084 -3.88705 26025 ft 403 kts
2026-05-07 13:24 37.48745 -3.87703 26389 ft 404 kts
2026-05-07 13:25 37.51467 -3.86681 26703 ft 406 kts
2026-05-07 13:25 37.54170 -3.85663 27024 ft 408 kts
2026-05-07 13:25 37.56887 -3.84641 27307 ft 410 kts
2026-05-07 13:25 37.59639 -3.83604 27627 ft 411 kts
2026-05-07 13:26 37.62372 -3.82572 27949 ft 412 kts
2026-05-07 13:26 37.65129 -3.81530 28258 ft 413 kts
2026-05-07 13:26 37.67886 -3.80490 28540 ft 415 kts
2026-05-07 13:26 37.70649 -3.79444 28793 ft 417 kts
2026-05-07 13:27 37.73428 -3.78395 29054 ft 419 kts
2026-05-07 13:27 37.76215 -3.77340 29319 ft 420 kts
2026-05-07 13:27 37.79028 -3.76275 29597 ft 421 kts
2026-05-07 13:27 37.81839 -3.75208 29824 ft 423 kts
2026-05-07 13:28 37.84675 -3.74131 30030 ft 425 kts
2026-05-07 13:28 37.87503 -3.73058 30296 ft 426 kts
2026-05-07 13:28 37.90341 -3.71979 30524 ft 427 kts
2026-05-07 13:28 37.93160 -3.70907 30686 ft 430 kts
2026-05-07 13:29 37.96025 -3.69816 30872 ft 432 kts
2026-05-07 13:29 37.98937 -3.68705 31071 ft 433 kts
2026-05-07 13:29 38.01810 -3.67610 31255 ft 435 kts
2026-05-07 13:29 38.04719 -3.66499 31434 ft 437 kts
2026-05-07 13:30 38.07628 -3.65387 31604 ft 438 kts
2026-05-07 13:30 38.10558 -3.64279 31789 ft 439 kts
2026-05-07 13:30 38.13527 -3.63327 31960 ft 437 kts
2026-05-07 13:30 38.16501 -3.62598 32118 ft 436 kts
2026-05-07 13:31 38.19478 -3.62084 32284 ft 434 kts 358°
2026-05-07 13:31 38.22478 -3.61745 32411 ft 434 kts 357°
2026-05-07 13:31 38.25523 -3.61450 32522 ft 436 kts 357°
2026-05-07 13:31 38.28511 -3.61168 32682 ft 437 kts 356°
2026-05-07 13:32 38.31581 -3.60877 32850 ft 437 kts 357°
2026-05-07 13:32 38.34604 -3.60587 33003 ft 438 kts 357°
2026-05-07 13:32 38.37655 -3.60297 33131 ft 439 kts 357°
2026-05-07 13:32 38.40665 -3.60006 33260 ft 440 kts 357°
2026-05-07 13:33 38.46820 -3.59413 33470 ft 443 kts 357°
2026-05-07 13:33 38.49900 -3.59113 33595 ft 444 kts 357°
2026-05-07 13:33 38.52960 -3.58816 33704 ft 445 kts 357°
2026-05-07 13:34 38.56059 -3.58514 33830 ft 445 kts 357°
2026-05-07 13:34 38.62247 -3.57910 33911 ft 448 kts 357°
2026-05-07 13:35 38.68451 -3.57304 33917 ft 448 kts 358°
2026-05-07 13:35 38.74657 -3.56696 33919 ft 448 kts 358°
2026-05-07 13:36 38.80873 -3.56086 33917 ft 449 kts 358°
2026-05-07 13:36 38.87061 -3.55480 33927 ft 450 kts 358°
2026-05-07 13:37 38.93299 -3.54867 33918 ft 449 kts 358°
2026-05-07 13:37 38.99545 -3.54250 33918 ft 450 kts 358°
2026-05-07 13:38 39.05781 -3.53633 33914 ft 451 kts 358°
2026-05-07 13:38 39.12030 -3.53013 33913 ft 451 kts 358°
2026-05-07 13:39 39.18323 -3.52387 33911 ft 453 kts 358°
2026-05-07 13:39 39.24632 -3.51757 33909 ft 453 kts 358°
2026-05-07 13:40 39.30918 -3.51129 33908 ft 453 kts 358°
2026-05-07 13:40 39.37220 -3.50497 33912 ft 453 kts 359°
2026-05-07 13:41 39.43480 -3.49868 33915 ft 454 kts 359°
2026-05-07 13:41 39.49773 -3.49234 33916 ft 454 kts 359°
2026-05-07 13:42 39.56087 -3.48598 33918 ft 454 kts 359°
2026-05-07 13:42 39.62370 -3.47967 33916 ft 455 kts 359°
2026-05-07 13:43 39.68705 -3.47333 33916 ft 455 kts 359°
2026-05-07 13:43 39.75005 -3.46718 33912 ft 453 kts 358°
2026-05-07 13:44 39.81253 -3.46715 33914 ft 449 kts 351°
2026-05-07 13:44 39.87508 -3.47309 33913 ft 450 kts 350°
2026-05-07 13:45 39.93726 -3.47953 33911 ft 451 kts 351°
2026-05-07 13:45 39.99989 -3.48593 33909 ft 450 kts 351°
2026-05-07 13:46 40.06245 -3.49227 33908 ft 450 kts 351°
2026-05-07 13:46 40.12503 -3.49865 33906 ft 451 kts 351°
2026-05-07 13:47 40.18782 -3.50503 33905 ft 452 kts 351°
2026-05-07 13:47 40.25070 -3.51143 33901 ft 451 kts 351°
2026-05-07 13:48 40.31338 -3.51783 33898 ft 453 kts 351°
2026-05-07 13:48 40.37627 -3.52422 33897 ft 453 kts 351°
2026-05-07 13:49 40.43906 -3.53066 33899 ft 454 kts 351°
2026-05-07 13:49 40.50206 -3.53714 33900 ft 454 kts 351°
2026-05-07 13:50 40.56544 -3.54365 33906 ft 455 kts 351°
2026-05-07 13:50 40.62820 -3.55013 33912 ft 455 kts 351°
2026-05-07 13:51 40.69144 -3.55666 33917 ft 456 kts 351°
2026-05-07 13:51 40.75497 -3.56322 33920 ft 457 kts 351°
2026-05-07 13:52 40.81835 -3.56976 33931 ft 457 kts 352°
2026-05-07 13:52 40.88160 -3.57634 33936 ft 458 kts 352°
2026-05-07 13:53 40.94507 -3.58294 33943 ft 458 kts 352°
2026-05-07 13:53 41.00857 -3.58955 33947 ft 458 kts 352°
2026-05-07 13:54 41.07236 -3.59619 33947 ft 458 kts 352°
2026-05-07 13:54 41.13548 -3.60281 33951 ft 459 kts 352°
2026-05-07 13:55 41.19984 -3.60603 33962 ft 461 kts 355°
2026-05-07 13:55 41.26396 -3.60751 33950 ft 462 kts 355°
2026-05-07 13:56 41.32840 -3.60903 33954 ft 462 kts 356°
2026-05-07 13:56 41.39284 -3.61065 33956 ft 462 kts 356°
2026-05-07 13:57 41.45708 -3.61226 33949 ft 463 kts 356°
2026-05-07 13:57 41.52106 -3.61374 33946 ft 463 kts 357°
2026-05-07 13:58 41.58575 -3.61379 33932 ft 464 kts 357°
2026-05-07 13:58 41.65008 -3.61363 33937 ft 464 kts 357°
2026-05-07 13:59 41.71459 -3.61354 33944 ft 465 kts 358°
2026-05-07 13:59 41.77931 -3.61347 33931 ft 465 kts 358°
2026-05-07 14:00 41.84394 -3.61345 33929 ft 465 kts 358°
2026-05-07 14:00 41.90886 -3.61346 33938 ft 466 kts 358°
2026-05-07 14:01 41.97380 -3.61344 33924 ft 466 kts 358°
2026-05-07 14:01 42.03820 -3.61435 33910 ft 465 kts 355°
2026-05-07 14:02 42.10194 -3.61833 33926 ft 465 kts 355°
2026-05-07 14:02 42.16759 -3.62273 33939 ft 465 kts 355°
2026-05-07 14:03 42.23220 -3.62695 33941 ft 465 kts 355°
2026-05-07 14:03 42.29577 -3.63106 33938 ft 466 kts 355°
2026-05-07 14:04 42.36047 -3.63630 33949 ft 465 kts 352°
2026-05-07 14:04 42.42450 -3.64786 33946 ft 465 kts 349°
2026-05-07 14:05 42.48828 -3.66078 33951 ft 465 kts 349°
2026-05-07 14:05 42.55237 -3.67366 33943 ft 465 kts 349°
2026-05-07 14:06 42.61636 -3.68645 33940 ft 465 kts 349°
2026-05-07 14:06 42.68023 -3.69922 33925 ft 465 kts 349°
2026-05-07 14:07 42.74464 -3.71061 33921 ft 466 kts 351°
2026-05-07 14:07 42.80906 -3.72137 33924 ft 466 kts 351°
2026-05-07 14:08 42.87334 -3.73223 33930 ft 466 kts 351°
2026-05-07 14:08 42.93765 -3.74322 33913 ft 467 kts 351°
2026-05-07 14:09 43.00237 -3.75431 33920 ft 466 kts 351°
2026-05-07 14:09 43.06671 -3.76536 33910 ft 466 kts 351°
2026-05-07 14:10 43.13102 -3.77644 33910 ft 466 kts 351°
2026-05-07 14:10 43.19508 -3.78749 33907 ft 466 kts 351°
2026-05-07 14:11 43.25972 -3.79869 33908 ft 466 kts 351°
2026-05-07 14:11 43.32394 -3.80982 33904 ft 467 kts 351°
2026-05-07 14:12 43.38851 -3.82103 33895 ft 467 kts 351°
2026-05-07 14:12 43.45272 -3.83223 33892 ft 466 kts 351°
2026-05-07 14:13 43.51686 -3.84342 33889 ft 466 kts 351°
2026-05-07 14:13 43.58113 -3.85465 33882 ft 466 kts 351°
2026-05-07 14:14 43.64552 -3.86593 33876 ft 466 kts 351°
2026-05-07 14:14 43.70973 -3.87723 33891 ft 466 kts 351°
2026-05-07 14:15 43.77406 -3.88856 33885 ft 466 kts 351°
2026-05-07 14:15 43.83821 -3.89987 33878 ft 466 kts 351°
2026-05-07 14:16 43.90239 -3.91120 33887 ft 465 kts 351°
2026-05-07 14:16 43.96653 -3.92258 33889 ft 465 kts 351°
2026-05-07 14:17 44.03056 -3.93395 33905 ft 465 kts 351°
2026-05-07 14:17 44.09468 -3.94537 33908 ft 465 kts 351°
2026-05-07 14:18 44.15859 -3.95678 33918 ft 465 kts 351°
2026-05-07 14:18 44.22313 -3.96832 33916 ft 466 kts 351°
2026-05-07 14:19 44.28777 -3.97104 33934 ft 469 kts
2026-05-07 14:19 44.35106 -3.95157 33931 ft 470 kts 19°
2026-05-07 14:20 44.40958 -3.91030 33928 ft 470 kts 33°
2026-05-07 14:20 44.46290 -3.85833 33928 ft 471 kts 35°
2026-05-07 14:21 44.51620 -3.80541 33930 ft 471 kts 35°
2026-05-07 14:21 44.56982 -3.75251 33927 ft 471 kts 35°
2026-05-07 14:22 44.62349 -3.69968 33930 ft 471 kts 35°
2026-05-07 14:22 44.67673 -3.64725 33935 ft 472 kts 35°
2026-05-07 14:23 44.73056 -3.59413 33932 ft 473 kts 35°
2026-05-07 14:23 44.78390 -3.54135 33937 ft 473 kts 35°
2026-05-07 14:24 44.83766 -3.48807 33933 ft 473 kts 35°
2026-05-07 14:24 44.89135 -3.43472 33936 ft 473 kts 35°
2026-05-07 14:25 44.94505 -3.38123 33927 ft 473 kts 35°
2026-05-07 14:25 44.99858 -3.32778 33935 ft 474 kts 36°
2026-05-07 14:26 45.05254 -3.27378 33938 ft 474 kts 36°
2026-05-07 14:26 45.10605 -3.22011 33939 ft 475 kts 36°
2026-05-07 14:27 45.15988 -3.16600 33946 ft 474 kts 36°
2026-05-07 14:27 45.21355 -3.11190 33938 ft 475 kts 36°
2026-05-07 14:28 45.26706 -3.05784 33943 ft 474 kts 36°
2026-05-07 14:28 45.32071 -3.00353 33949 ft 474 kts 36°
2026-05-07 14:29 45.37442 -2.94902 33953 ft 474 kts 36°
2026-05-07 14:29 45.42784 -2.89465 33955 ft 474 kts 36°
2026-05-07 14:30 45.48146 -2.83996 33954 ft 474 kts 36°
2026-05-07 14:30 45.53486 -2.78538 33967 ft 474 kts 36°
2026-05-07 14:31 45.58815 -2.73076 33967 ft 474 kts 36°
2026-05-07 14:31 45.64176 -2.67569 33976 ft 474 kts 36°
2026-05-07 14:32 45.69497 -2.62090 33972 ft 474 kts 36°
2026-05-07 14:32 45.74803 -2.56615 33976 ft 473 kts 36°
2026-05-07 14:33 45.80150 -2.51084 33979 ft 474 kts 36°
2026-05-07 14:33 45.85455 -2.45580 33978 ft 474 kts 36°
2026-05-07 14:34 45.90778 -2.40044 33975 ft 474 kts 36°
2026-05-07 14:34 45.96122 -2.34474 33982 ft 474 kts 36°
2026-05-07 14:35 46.01465 -2.28891 33979 ft 474 kts 36°
2026-05-07 14:35 46.06799 -2.23450 33977 ft 473 kts 34°
2026-05-07 14:36 46.12307 -2.18241 33977 ft 473 kts 33°
2026-05-07 14:36 46.17788 -2.13080 33981 ft 472 kts 33°
2026-05-07 14:37 46.23280 -2.07880 33981 ft 473 kts 33°
2026-05-07 14:37 46.31480 -2.00076 33979 ft 473 kts 33°
2026-05-07 14:38 46.36977 -1.94829 33966 ft 473 kts 33°
2026-05-07 14:38 46.42453 -1.89589 33966 ft 472 kts 33°
2026-05-07 14:39 46.47910 -1.84354 33979 ft 472 kts 33°
2026-05-07 14:39 46.53363 -1.79110 33979 ft 472 kts 33°
2026-05-07 14:40 46.58831 -1.73840 33976 ft 471 kts 33°
2026-05-07 14:40 46.64288 -1.68568 33981 ft 471 kts 33°
2026-05-07 14:41 46.69741 -1.63284 33984 ft 471 kts 33°
2026-05-07 14:41 46.75168 -1.58013 33983 ft 470 kts 33°
2026-05-07 14:42 46.80580 -1.52743 33986 ft 470 kts 33°
2026-05-07 14:42 46.85996 -1.47455 33979 ft 470 kts 33°
2026-05-07 14:43 46.91443 -1.42124 33989 ft 470 kts 33°
2026-05-07 14:43 46.96649 -1.36376 33968 ft 470 kts 40°
2026-05-07 14:44 47.01368 -1.29735 33967 ft 469 kts 48°
2026-05-07 14:44 47.05730 -1.22623 33969 ft 468 kts 49°
2026-05-07 14:45 47.09983 -1.15609 33971 ft 469 kts 49°
2026-05-07 14:45 47.14320 -1.08470 33964 ft 468 kts 49°
2026-05-07 14:46 47.18655 -1.01332 33964 ft 468 kts 49°
2026-05-07 14:46 47.22977 -0.94202 33969 ft 468 kts 48°
2026-05-07 14:47 47.27303 -0.87045 33969 ft 468 kts 48°
2026-05-07 14:47 47.31616 -0.79892 33968 ft 468 kts 48°
2026-05-07 14:48 47.35933 -0.72710 33972 ft 468 kts 48°
2026-05-07 14:48 47.40191 -0.65607 33969 ft 467 kts 48°
2026-05-07 14:49 47.44747 -0.58792 33976 ft 466 kts 41°
2026-05-07 14:49 47.49772 -0.52785 33983 ft 466 kts 36°
2026-05-07 14:50 47.54982 -0.47061 33991 ft 465 kts 36°
2026-05-07 14:50 47.60187 -0.41335 33992 ft 465 kts 36°
2026-05-07 14:51 47.65342 -0.35630 33998 ft 464 kts 36°
2026-05-07 14:51 47.70433 -0.29974 33999 ft 464 kts 36°
2026-05-07 14:52 47.75575 -0.24242 33992 ft 464 kts 36°
2026-05-07 14:52 47.80748 -0.18458 33995 ft 463 kts 36°
2026-05-07 14:53 47.85893 -0.12693 33996 ft 462 kts 36°
2026-05-07 14:53 47.91046 -0.06906 33999 ft 461 kts 36°
2026-05-07 14:54 47.96131 -0.01176 34000 ft 461 kts 36°
2026-05-07 14:54 48.01238 0.04592 34003 ft 461 kts 36°
2026-05-07 14:55 48.06367 0.10398 34002 ft 461 kts 36°
2026-05-07 14:55 48.11479 0.16198 33993 ft 462 kts 36°
2026-05-07 14:56 48.16584 0.22007 33989 ft 462 kts 36°
2026-05-07 14:56 48.21701 0.27842 33989 ft 461 kts 36°
2026-05-07 14:57 48.26781 0.33647 33994 ft 460 kts 36°
2026-05-07 14:57 48.31869 0.39480 34004 ft 460 kts 36°
2026-05-07 14:58 48.36944 0.45314 34011 ft 460 kts 36°
2026-05-07 14:58 48.42033 0.51180 34017 ft 461 kts 36°
2026-05-07 14:59 48.47092 0.57026 34018 ft 461 kts 36°
2026-05-07 14:59 48.52175 0.62914 34021 ft 461 kts 36°
2026-05-07 15:00 48.57281 0.68844 34025 ft 460 kts 37°
2026-05-07 15:00 48.62329 0.74724 34020 ft 460 kts 37°
2026-05-07 15:01 48.67406 0.80654 34017 ft 459 kts 37°
2026-05-07 15:01 48.72438 0.86549 34020 ft 459 kts 37°
2026-05-07 15:02 48.77478 0.92411 34019 ft 459 kts 36°
2026-05-07 15:02 48.82574 0.98257 34022 ft 459 kts 36°
2026-05-07 15:03 48.87679 1.04135 34023 ft 459 kts 36°
2026-05-07 15:03 48.92760 1.10011 34039 ft 459 kts 36°
2026-05-07 15:04 48.97837 1.15902 34045 ft 459 kts 36°
2026-05-07 15:04 49.02885 1.21881 34049 ft 460 kts 38°
2026-05-07 15:05 49.07631 1.28455 34049 ft 460 kts 42°
2026-05-07 15:05 49.12249 1.35153 34046 ft 460 kts 42°
2026-05-07 15:06 49.16849 1.41826 34044 ft 460 kts 42°
2026-05-07 15:06 49.21494 1.48567 34042 ft 460 kts 42°
2026-05-07 15:07 49.26135 1.55317 34036 ft 460 kts 42°
2026-05-07 15:07 49.30757 1.62047 34027 ft 460 kts 42°
2026-05-07 15:08 49.35396 1.68821 34022 ft 460 kts 43°
2026-05-07 15:08 49.39990 1.75551 34020 ft 461 kts 43°
2026-05-07 15:09 49.44650 1.82397 34021 ft 461 kts 43°
2026-05-07 15:09 49.49298 1.89248 34023 ft 461 kts 42°
2026-05-07 15:10 49.53918 1.96069 34027 ft 461 kts 42°
2026-05-07 15:10 49.58534 2.02905 34026 ft 461 kts 43°
2026-05-07 15:11 49.63131 2.09733 34022 ft 461 kts 43°
2026-05-07 15:11 49.67724 2.16577 34019 ft 461 kts 43°
2026-05-07 15:12 49.72360 2.23505 33827 ft 461 kts 43°
2026-05-07 15:12 49.74635 2.26912 33429 ft 459 kts 43°
2026-05-07 15:12 49.76930 2.30353 32880 ft 456 kts 43°
2026-05-07 15:13 49.79194 2.33753 32239 ft 455 kts 42°
2026-05-07 15:13 49.81472 2.37179 31549 ft 455 kts 42°
2026-05-07 15:13 49.83729 2.40578 31069 ft 449 kts 42°
2026-05-07 15:13 49.85930 2.43899 30607 ft 443 kts 42°
2026-05-07 15:14 49.88125 2.47212 30142 ft 438 kts 42°
2026-05-07 15:14 49.90309 2.50514 29677 ft 432 kts 42°
2026-05-07 15:14 49.92451 2.53757 29222 ft 427 kts 42°
2026-05-07 15:14 49.94544 2.56930 28778 ft 421 kts 42°
2026-05-07 15:15 49.96648 2.60122 28324 ft 416 kts 42°
2026-05-07 15:15 49.98705 2.63245 27884 ft 411 kts 43°
2026-05-07 15:15 50.00738 2.66338 27440 ft 407 kts 43°
2026-05-07 15:15 50.02724 2.69364 27005 ft 402 kts 43°
2026-05-07 15:16 50.04711 2.72396 26563 ft 398 kts 43°
2026-05-07 15:16 50.06656 2.75366 26129 ft 394 kts 43°
2026-05-07 15:16 50.08605 2.78348 25688 ft 390 kts 43°
2026-05-07 15:16 50.10542 2.81313 25242 ft 386 kts 43°
2026-05-07 15:17 50.12196 2.83849 24858 ft 383 kts 43°
2026-05-07 15:17 50.14103 2.86777 24424 ft 380 kts 43°
2026-05-07 15:17 50.15993 2.89681 23990 ft 376 kts 43°
2026-05-07 15:17 50.17827 2.92502 23568 ft 373 kts 43°
2026-05-07 15:18 50.19665 2.95332 23142 ft 371 kts 43°
2026-05-07 15:18 50.21507 2.98170 22713 ft 368 kts 43°
2026-05-07 15:18 50.23333 3.00986 22284 ft 366 kts 44°
2026-05-07 15:18 50.25130 3.03763 21863 ft 363 kts 44°
2026-05-07 15:19 50.26914 3.06522 21444 ft 361 kts 44°
2026-05-07 15:19 50.28699 3.09288 21017 ft 359 kts 44°
2026-05-07 15:19 50.30459 3.12016 20602 ft 357 kts 44°
2026-05-07 15:19 50.32204 3.14726 20182 ft 355 kts 44°
2026-05-07 15:20 50.33956 3.17451 19760 ft 353 kts 44°
2026-05-07 15:20 50.35703 3.20170 19339 ft 351 kts 44°
2026-05-07 15:20 50.37416 3.22839 18928 ft 350 kts 44°
2026-05-07 15:20 50.39148 3.25540 18514 ft 348 kts 44°
2026-05-07 15:21 50.40849 3.28195 18104 ft 346 kts 44°
2026-05-07 15:21 50.42567 3.30874 17680 ft 345 kts 44°
2026-05-07 15:21 50.44262 3.33520 17259 ft 344 kts 44°
2026-05-07 15:21 50.45947 3.36155 16845 ft 342 kts 44°
2026-05-07 15:22 50.47626 3.38784 16433 ft 341 kts 44°
2026-05-07 15:22 50.49286 3.41388 16022 ft 340 kts 44°
2026-05-07 15:22 50.50960 3.44016 15607 ft 339 kts 44°
2026-05-07 15:22 50.52637 3.46650 15186 ft 337 kts 44°
2026-05-07 15:23 50.54328 3.49122 14774 ft 336 kts 40°
2026-05-07 15:23 50.56160 3.51436 14352 ft 335 kts 36°
2026-05-07 15:23 50.58058 3.53563 13937 ft 333 kts 34°
2026-05-07 15:23 50.59954 3.55636 13529 ft 332 kts 34°
2026-05-07 15:24 50.61844 3.57698 13118 ft 330 kts 34°
2026-05-07 15:24 50.63712 3.59741 12708 ft 328 kts 34°
2026-05-07 15:24 50.65597 3.61811 12292 ft 326 kts 34°
2026-05-07 15:24 50.67437 3.63835 11883 ft 324 kts 34°
2026-05-07 15:25 50.69240 3.65822 11481 ft 322 kts 35°
2026-05-07 15:25 50.70994 3.67758 11096 ft 320 kts 35°
2026-05-07 15:25 50.72497 3.69418 10767 ft 318 kts 35°
2026-05-07 15:25 50.74073 3.71161 10407 ft 317 kts 35°
2026-05-07 15:26 50.75879 3.73161 10164 ft 307 kts 35°
2026-05-07 15:26 50.77670 3.75152 10083 ft 292 kts 35°
2026-05-07 15:26 50.79301 3.76968 9953 ft 284 kts 35°
2026-05-07 15:26 50.80926 3.78779 9573 ft 283 kts 36°
2026-05-07 15:27 50.82510 3.80547 9228 ft 282 kts 36°
2026-05-07 15:27 50.84112 3.82335 9036 ft 273 kts 36°
2026-05-07 15:27 50.85623 3.84024 9025 ft 258 kts 36°
2026-05-07 15:27 50.87041 3.85644 9030 ft 254 kts 40°
2026-05-07 15:28 50.88267 3.87731 8897 ft 258 kts 56°
2026-05-07 15:28 50.89219 3.90091 8627 ft 255 kts 59°
2026-05-07 15:28 50.90119 3.92489 8328 ft 252 kts 60°
2026-05-07 15:28 50.91022 3.94889 7914 ft 255 kts 59°
2026-05-07 15:29 50.91915 3.97330 7553 ft 255 kts 66°
2026-05-07 15:29 50.92181 4.00066 7185 ft 252 kts 102°
2026-05-07 15:29 50.91405 4.02439 6873 ft 248 kts 131°
2026-05-07 15:29 50.90188 4.04333 6433 ft 244 kts 136°